When you browse on this site, cookies collect data to enhance your experience and personalize the content and advertising you see.
Visit our Privacy Policy to learn more. By continuing to use the site, you agree to this use of cookies and data.
  • In Sweden
  • List of Countries
  • For 7 days
  • Water Temperature
  • Weather Map
  • Weather Widgets
  • user-avatar
    Login

    Hourly Weather Xai-Xai

    Today, 19 February, Wednesday

    Time Temperature Precipitation Wind Pressure Humidity
    00:00 +14°C° 0 mm 4 mps 739 mmHg 49%
    01:00 +13°C° 0 mm 4 mps 739 mmHg 50%
    02:00 +13°C° 0 mm 3 mps 739 mmHg 52%
    03:00 +12°C° 0 mm 3 mps 739 mmHg 53%
    04:00 +12°C° 0 mm 3 mps 739 mmHg 55%
    05:00 +11°C° 0 mm 3 mps 739 mmHg 57%
    06:00 +12°C° 0 mm 3 mps 740 mmHg 52%
    07:00 +14°C° 0 mm 4 mps 740 mmHg 47%
    08:00 +15°C° 0 mm 4 mps 740 mmHg 42%
    09:00 +16°C° 0 mm 6 mps 740 mmHg 37%
    10:00 +18°C° 0 mm 8 mps 740 mmHg 33%
    11:00 +19°C° 0 mm 9 mps 741 mmHg 29%
    12:00 +21°C° 0 mm 9 mps 740 mmHg 28%
    13:00 +21°C° 0 mm 9 mps 739 mmHg 26%
    14:00 +22°C° 0 mm 9 mps 739 mmHg 25%
    15:00 +21°C° 0 mm 9 mps 739 mmHg 26%
    16:00 +21°C° 0 mm 8 mps 739 mmHg 27%
    17:00 +21°C° 0 mm 8 mps 739 mmHg 27%
    18:00 +18°C° 0 mm 7 mps 740 mmHg 32%
    19:00 +16°C° 0 mm 6 mps 740 mmHg 36%
    20:00 +15°C° 0 mm 5 mps 740 mmHg 41%
    21:00 +14°C° 0 mm 4 mps 741 mmHg 43%
    22:00 +13°C° 0 mm 4 mps 741 mmHg 45%
    23:00 +12°C° 0 mm 3 mps 741 mmHg 47%

    Tomorrow, 20 February, Thursday

    Time Temperature Precipitation Wind Pressure Humidity
    00:00 +12°C° 0 mm 3 mps 741 mmHg 49%
    01:00 +11°C° 0 mm 3 mps 741 mmHg 51%
    02:00 +10°C° 0 mm 2 mps 741 mmHg 54%
    03:00 +10°C° 0 mm 2 mps 741 mmHg 56%
    04:00 +9°C° 0 mm 2 mps 741 mmHg 58%
    05:00 +9°C° 0 mm 2 mps 741 mmHg 61%
    06:00 +10°C° 0 mm 2 mps 741 mmHg 58%
    07:00 +13°C° 0 mm 2 mps 742 mmHg 54%
    08:00 +13°C° 0 mm 3 mps 743 mmHg 51%
    09:00 +16°C° 0 mm 3 mps 742 mmHg 44%
    10:00 +18°C° 0 mm 3 mps 742 mmHg 37%
    11:00 +20°C° 0 mm 4 mps 742 mmHg 30%
    12:00 +21°C° 0 mm 4 mps 742 mmHg 27%
    13:00 +22°C° 0 mm 3 mps 741 mmHg 23%
    14:00 +24°C° 0 mm 3 mps 740 mmHg 19%
    15:00 +24°C° 0 mm 3 mps 740 mmHg 19%
    16:00 +24°C° 0 mm 3 mps 740 mmHg 18%
    17:00 +22°C° 0 mm 3 mps 739 mmHg 18%
    18:00 +20°C° 0 mm 3 mps 740 mmHg 22%
    19:00 +18°C° 0 mm 3 mps 740 mmHg 25%
    20:00 +16°C° 0 mm 2 mps 740 mmHg 29%
    21:00 +15°C° 0 mm 2 mps 740 mmHg 42%
    22:00 +13°C° 0 mm 2 mps 740 mmHg 56%
    23:00 +12°C° 0 mm 1 mps 740 mmHg 69%

    Day after tomorrow, 21 February, Friday

    Time Temperature Precipitation Wind Pressure Humidity
    00:00 +11°C° 0 mm 1 mps 740 mmHg 71%
    01:00 +11°C° 0 mm 1 mps 739 mmHg 74%
    02:00 +9°C° 0 mm 0 mps 739 mmHg 77%
    03:00 +9°C° 0 mm 0 mps 739 mmHg 75%
    04:00 +9°C° 0 mm 1 mps 739 mmHg 74%
    05:00 +9°C° 0 mm 1 mps 739 mmHg 72%
    06:00 +12°C° 0 mm 1 mps 739 mmHg 64%
    07:00 +14°C° 0 mm 2 mps 740 mmHg 55%
    08:00 +16°C° 0 mm 2 mps 740 mmHg 46%
    15:00 +26°C° 0 mm 4 mps 738 mmHg 14%
    16:00 +26°C° 0 mm 4 mps 738 mmHg 14%
    17:00 +25°C° 0 mm 4 mps 738 mmHg 14%
    18:00 +22°C° 0 mm 4 mps 738 mmHg 17%
    19:00 +20°C° 0 mm 4 mps 739 mmHg 20%
    20:00 +18°C° 0 mm 4 mps 739 mmHg 23%
    21:00 +17°C° 0 mm 4 mps 739 mmHg 25%
    22:00 +17°C° 0 mm 4 mps 739 mmHg 27%
    23:00 +15°C° 0 mm 5 mps 740 mmHg 29%

    22 February, Saturday

    Time Temperature Precipitation Wind Pressure Humidity
    00:00 +14°C° 0 mm 4 mps 739 mmHg 31%
    01:00 +14°C° 0 mm 4 mps 739 mmHg 34%
    02:00 +13°C° 0 mm 4 mps 739 mmHg 36%
    03:00 +12°C° 0 mm 4 mps 739 mmHg 39%
    04:00 +12°C° 0 mm 4 mps 739 mmHg 42%
    05:00 +11°C° 0 mm 4 mps 739 mmHg 44%
    06:00 +12°C° 0 mm 4 mps 740 mmHg 44%
    07:00 +13°C° 0 mm 4 mps 740 mmHg 44%
    08:00 +14°C° 0 mm 4 mps 741 mmHg 44%
    09:00 +17°C° 0 mm 4 mps 741 mmHg 39%
    10:00 +19°C° 0 mm 5 mps 741 mmHg 33%
    11:00 +21°C° 0 mm 5 mps 741 mmHg 28%
    12:00 +22°C° 0 mm 5 mps 740 mmHg 25%
    13:00 +23°C° 0 mm 5 mps 740 mmHg 22%
    14:00 +25°C° 0 mm 5 mps 739 mmHg 20%
    15:00 +23°C° 0 mm 5 mps 739 mmHg 19%
    16:00 +23°C° 0 mm 5 mps 739 mmHg 19%
    17:00 +22°C° 0 mm 5 mps 739 mmHg 18%
    18:00 +20°C° 0 mm 5 mps 740 mmHg 22%
    19:00 +17°C° 0 mm 5 mps 740 mmHg 26%
    20:00 +16°C° 0 mm 5 mps 740 mmHg 30%
    21:00 +15°C° 0 mm 4 mps 740 mmHg 34%
    22:00 +14°C° 0 mm 4 mps 740 mmHg 37%
    23:00 +13°C° 0 mm 4 mps 741 mmHg 41%

    23 February, Sunday

    Time Temperature Precipitation Wind Pressure Humidity
    00:00 +12°C° 0 mm 4 mps 740 mmHg 45%
    01:00 +12°C° 0 mm 3 mps 740 mmHg 49%
    02:00 +11°C° 0 mm 3 mps 740 mmHg 53%
    03:00 +11°C° 0 mm 3 mps 740 mmHg 54%
    04:00 +10°C° 0 mm 3 mps 740 mmHg 54%
    05:00 +10°C° 0 mm 3 mps 739 mmHg 55%
    06:00 +11°C° 0 mm 3 mps 740 mmHg 52%
    07:00 +12°C° 0 mm 3 mps 740 mmHg 48%
    08:00 +13°C° 0 mm 4 mps 741 mmHg 45%
    09:00 +15°C° 0 mm 4 mps 740 mmHg 39%
    10:00 +18°C° 0 mm 4 mps 740 mmHg 34%
    11:00 +20°C° 0 mm 5 mps 740 mmHg 29%
    12:00 +21°C° 0 mm 5 mps 739 mmHg 27%
    13:00 +22°C° 0 mm 5 mps 739 mmHg 25%
    14:00 +22°C° 0 mm 5 mps 738 mmHg 23%
    15:00 +22°C° 0 mm 5 mps 738 mmHg 23%
    16:00 +21°C° 0 mm 5 mps 738 mmHg 24%
    17:00 +21°C° 0 mm 5 mps 738 mmHg 24%
    18:00 +19°C° 0 mm 5 mps 738 mmHg 27%
    19:00 +18°C° 0 mm 4 mps 738 mmHg 31%
    20:00 +15°C° 0 mm 4 mps 739 mmHg 34%
    21:00 +14°C° 0 mm 4 mps 739 mmHg 37%
    22:00 +13°C° 0 mm 4 mps 739 mmHg 40%
    23:00 +13°C° 0 mm 4 mps 739 mmHg 43%

    24 February, Monday

    Time Temperature Precipitation Wind Pressure Humidity
    00:00 +12°C° 0 mm 4 mps 739 mmHg 46%
    01:00 +12°C° 0 mm 4 mps 739 mmHg 49%
    02:00 +11°C° 0 mm 4 mps 738 mmHg 51%
    03:00 +10°C° 0 mm 4 mps 739 mmHg 55%
    04:00 +10°C° 0 mm 4 mps 739 mmHg 59%
    05:00 +8°C° 0 mm 5 mps 739 mmHg 63%
    06:00 +8°C° 0 mm 5 mps 739 mmHg 61%
    07:00 +8°C° 0 mm 6 mps 739 mmHg 58%
    08:00 +9°C° 0 mm 6 mps 740 mmHg 55%
    09:00 +11°C° 0 mm 7 mps 739 mmHg 48%
    10:00 +12°C° 0 mm 7 mps 739 mmHg 41%
    11:00 +15°C° 0 mm 7 mps 739 mmHg 34%
    12:00 +16°C° 0 mm 8 mps 739 mmHg 33%
    13:00 +16°C° 0 mm 9 mps 738 mmHg 32%
    14:00 +16°C° 0 mm 10 mps 738 mmHg 32%
    15:00 +16°C° 0 mm 9 mps 738 mmHg 33%
    16:00 +15°C° 0 mm 8 mps 738 mmHg 35%
    17:00 +15°C° 0 mm 7 mps 738 mmHg 36%
    18:00 +13°C° 0 mm 6 mps 739 mmHg 41%
    19:00 +12°C° 0 mm 5 mps 739 mmHg 45%
    20:00 +11°C° 0 mm 4 mps 740 mmHg 49%
    21:00 +10°C° 0 mm 4 mps 740 mmHg 55%
    22:00 +9°C° 0 mm 3 mps 740 mmHg 61%
    23:00 +9°C° 0 mm 3 mps 741 mmHg 67%
    Show more